Home   Weather   Cape Town   Past weeks

Flag for South Africa Past Weather in Cape Town, South Africa — Yesterday and Last 2 Weeks

Now
73 °F

Sunny.


Feels Like: 77 °F
Forecast: 59 / 79 °F
Wind: 18 mph from South

Location: Cape Town International Airport

Current Time: Dec 4, 2016 at 2:20:59 pm

Latest Report: Dec 4, 2016 at 2:00 pm


Visibility: 10 mi

Pressure: 30.12 "Hg

Humidity: 47%

Dew Point: 52 °F

Location of Cape TownLocation

Past Weather in Cape Town — Graph

°F

Cape Town Temperature Yesterday

Maximum temperature yesterday: 79 °F (at 12:00 pm)
Minimum temperature yesterday: 63 °F (at 1:00 am)
Average temperature yesterday: 69 °F

High & Low Weather Summary for the Past Weeks

 TemperatureHumidityPressure
High88 °F (Nov 27, 12:00 pm)94% (Nov 23, 7:00 pm)30.12 "Hg (Nov 23, 7:00 pm)
Low55 °F (Nov 21, 4:00 am)31% (Nov 20, 11:00 am)29.71 "Hg (Nov 20, 7:00 pm)
Average68 °F65%29.96 "Hg
* Reported Nov 19 1:00 pm — Dec 4 1:00 pm, Cape Town, Weather by CustomWeather, © 2016

Note: Actual official high and low records may vary slightly from our data, if they occured in-between our weather recording intervals... More about our weather records

Advertising

Cape Town Weather History for the Previous 24 Hours

Scroll right to see more
 ConditionsComfort  
Time TempWeatherWind HumidityBarometerVisibility
1:00 pm
Sun, Dec 4
75 °FPassing clouds.16 mph41%30.12 "HgN/A
12:00 pm75 °FPassing clouds.14 mph44%30.12 "HgN/A
11:00 am73 °FScattered clouds.14 mph50%30.12 "HgN/A
10:00 am72 °FPartly sunny.13 mph57%30.12 "HgN/A
9:00 am72 °FScattered clouds.8 mph57%30.09 "HgN/A
8:00 am68 °FPartly sunny.5 mph69%30.09 "HgN/A
7:00 am63 °FPartly sunny.8 mph83%30.09 "HgN/A
6:00 am59 °FSunny.6 mph88%30.07 "Hg10 mi
5:00 am61 °FClear.5 mph83%30.04 "Hg10 mi
4:00 am64 °FPassing clouds.5 mph78%30.04 "HgN/A
3:00 am64 °FPassing clouds.3 mph73%30.04 "HgN/A
2:00 am64 °FPartly cloudy.3 mph78%30.04 "HgN/A
1:00 am64 °FPassing clouds.5 mph78%30.04 "HgN/A
12:00 am66 °FPassing clouds.2 mph68%30.04 "HgN/A
11:00 pm
Sat, Dec 3
66 °FPassing clouds.2 mph68%30.04 "HgN/A
10:00 pm64 °FClear.2 mph68%30.04 "Hg10 mi
9:00 pm66 °FClear.7 mph68%30.01 "Hg10 mi
8:00 pm68 °FPassing clouds.12 mph60%29.98 "HgN/A
7:00 pm72 °FPassing clouds.10 mph50%29.92 "HgN/A
6:00 pm73 °FPassing clouds.13 mph57%29.89 "HgN/A
5:00 pm75 °FPassing clouds.16 mph50%29.89 "HgN/A
4:00 pm79 °FPassing clouds.16 mph45%29.86 "HgN/A
3:00 pm79 °FPassing clouds.12 mph58%29.86 "HgN/A
2:00 pm79 °FSunny.12 mph54%29.83 "Hg10 mi
Weather by CustomWeather, © 2016

See weather overviewHow to use our weather pages